Time,TemperatureF,DewpointF,PressureIn,WindDirection,WindDirectionDegrees,WindSpeedMPH,WindSpeedGustMPH,Humidity,HourlyPrecipIn,Conditions,Clouds,dailyrainin,SolarRadiationWatts/m^2,SoftwareType,DateUTC
2013-04-04 00:03:00,52.0,18.0,-100.00,ENE,69,6.0,13.0,26,0.00,,,0.00,93.000000,,2013-04-04 00:03:00,
2013-04-04 00:12:00,52.0,18.0,-100.00,ENE,69,6.0,13.0,26,0.00,,,0.00,93.000000,,2013-04-04 00:12:00,
2013-04-04 00:22:00,52.0,18.0,-100.00,ENE,69,6.0,13.0,26,0.00,,,0.00,93.000000,,2013-04-04 00:22:00,
2013-04-04 00:32:00,52.0,18.0,-100.00,ENE,69,6.0,13.0,26,0.00,,,0.00,93.000000,,2013-04-04 00:32:00,
2013-04-04 01:02:00,49.0,20.0,-100.00,NE,53,4.0,11.0,31,0.00,,,0.00,15.000000,,2013-04-04 01:02:00,
2013-04-04 01:12:00,49.0,20.0,-100.00,NE,53,4.0,11.0,31,0.00,,,0.00,15.000000,,2013-04-04 01:12:00,
2013-04-04 01:22:00,49.0,20.0,-100.00,NE,53,4.0,11.0,31,0.00,,,0.00,15.000000,,2013-04-04 01:22:00,
2013-04-04 01:32:00,49.0,20.0,-100.00,NE,53,4.0,11.0,31,0.00,,,0.00,15.000000,,2013-04-04 01:32:00,
2013-04-04 02:02:00,49.0,20.0,-100.00,ENE,63,6.0,11.0,32,0.00,,,0.00,0.000000,,2013-04-04 02:02:00,
2013-04-04 02:12:00,49.0,20.0,-100.00,ENE,63,6.0,11.0,32,0.00,,,0.00,0.000000,,2013-04-04 02:12:00,
2013-04-04 02:22:00,49.0,20.0,-100.00,ENE,63,6.0,11.0,32,0.00,,,0.00,0.000000,,2013-04-04 02:22:00,
2013-04-04 02:32:00,49.0,20.0,-100.00,ENE,63,6.0,11.0,32,0.00,,,0.00,0.000000,,2013-04-04 02:32:00,
2013-04-04 03:02:00,47.0,19.0,-100.00,ENE,67,5.0,14.0,32,0.00,,,0.00,0.000000,,2013-04-04 03:02:00,
2013-04-04 03:12:00,47.0,19.0,-100.00,ENE,67,5.0,14.0,32,0.00,,,0.00,0.000000,,2013-04-04 03:12:00,
2013-04-04 03:22:00,47.0,19.0,-100.00,ENE,67,5.0,14.0,32,0.00,,,0.00,0.000000,,2013-04-04 03:22:00,
2013-04-04 03:33:00,47.0,19.0,-100.00,ENE,67,5.0,14.0,32,0.00,,,0.00,0.000000,,2013-04-04 03:33:00,
2013-04-04 04:03:00,47.0,19.0,-100.00,ENE,59,5.0,13.0,32,0.00,,,0.00,0.000000,,2013-04-04 04:03:00,
2013-04-04 04:12:00,47.0,19.0,-100.00,ENE,59,5.0,13.0,32,0.00,,,0.00,0.000000,,2013-04-04 04:12:00,
2013-04-04 04:23:00,47.0,19.0,-100.00,ENE,59,5.0,13.0,32,0.00,,,0.00,0.000000,,2013-04-04 04:23:00,
2013-04-04 04:33:00,47.0,19.0,-100.00,ENE,59,5.0,13.0,32,0.00,,,0.00,0.000000,,2013-04-04 04:33:00,
2013-04-04 05:02:00,46.0,19.0,-100.00,ENE,64,5.0,11.0,34,0.00,,,0.00,0.000000,,2013-04-04 05:02:00,
2013-04-04 05:13:00,46.0,19.0,-100.00,ENE,64,5.0,11.0,34,0.00,,,0.00,0.000000,,2013-04-04 05:13:00,
2013-04-04 05:23:00,46.0,19.0,-100.00,ENE,64,5.0,11.0,34,0.00,,,0.00,0.000000,,2013-04-04 05:23:00,
2013-04-04 05:32:00,46.0,19.0,-100.00,ENE,64,5.0,11.0,34,0.00,,,0.00,0.000000,,2013-04-04 05:32:00,
2013-04-04 06:02:00,45.0,19.0,-100.00,ENE,69,6.0,11.0,35,0.00,,,0.00,0.000000,,2013-04-04 06:02:00,
2013-04-04 06:12:00,45.0,19.0,-100.00,ENE,69,6.0,11.0,35,0.00,,,0.00,0.000000,,2013-04-04 06:12:00,
2013-04-04 06:22:00,45.0,19.0,-100.00,ENE,69,6.0,11.0,35,0.00,,,0.00,0.000000,,2013-04-04 06:22:00,
2013-04-04 06:32:00,45.0,19.0,-100.00,ENE,69,6.0,11.0,35,0.00,,,0.00,0.000000,,2013-04-04 06:32:00,
2013-04-04 07:02:00,45.0,20.0,-100.00,ENE,69,5.0,12.0,36,0.00,,,0.00,0.000000,,2013-04-04 07:02:00,
2013-04-04 07:12:00,45.0,20.0,-100.00,ENE,69,5.0,12.0,36,0.00,,,0.00,0.000000,,2013-04-04 07:12:00,
2013-04-04 07:22:00,45.0,20.0,-100.00,ENE,69,5.0,12.0,36,0.00,,,0.00,0.000000,,2013-04-04 07:22:00,
2013-04-04 07:32:00,45.0,20.0,-100.00,ENE,69,5.0,12.0,36,0.00,,,0.00,0.000000,,2013-04-04 07:32:00,
2013-04-04 08:02:00,44.0,19.0,-100.00,ENE,69,5.0,13.0,37,0.00,,,0.00,0.000000,,2013-04-04 08:02:00,
2013-04-04 08:12:00,44.0,19.0,-100.00,ENE,69,5.0,13.0,37,0.00,,,0.00,0.000000,,2013-04-04 08:12:00,
2013-04-04 08:23:00,44.0,19.0,-100.00,ENE,69,5.0,13.0,37,0.00,,,0.00,0.000000,,2013-04-04 08:23:00,
2013-04-04 08:32:00,44.0,19.0,-100.00,ENE,69,5.0,13.0,37,0.00,,,0.00,0.000000,,2013-04-04 08:32:00,
2013-04-04 09:03:00,43.0,19.0,-100.00,ENE,66,4.0,12.0,37,0.00,,,0.00,0.000000,,2013-04-04 09:03:00,
2013-04-04 09:12:00,43.0,19.0,-100.00,ENE,66,4.0,12.0,37,0.00,,,0.00,0.000000,,2013-04-04 09:12:00,
2013-04-04 09:22:00,43.0,19.0,-100.00,ENE,66,4.0,12.0,37,0.00,,,0.00,0.000000,,2013-04-04 09:22:00,
2013-04-04 09:33:00,43.0,19.0,-100.00,ENE,66,4.0,12.0,37,0.00,,,0.00,0.000000,,2013-04-04 09:33:00,
2013-04-04 10:04:00,43.0,19.0,-100.00,ENE,62,5.0,10.0,38,0.00,,,0.00,0.000000,,2013-04-04 10:04:00,
2013-04-04 10:12:00,43.0,19.0,-100.00,ENE,62,5.0,10.0,38,0.00,,,0.00,0.000000,,2013-04-04 10:12:00,
2013-04-04 10:24:00,43.0,19.0,-100.00,ENE,62,5.0,10.0,38,0.00,,,0.00,0.000000,,2013-04-04 10:24:00,
2013-04-04 10:33:00,43.0,19.0,-100.00,ENE,62,5.0,10.0,38,0.00,,,0.00,0.000000,,2013-04-04 10:33:00,
2013-04-04 11:02:00,43.0,20.0,-100.00,ENE,61,5.0,9.0,39,0.00,,,0.00,0.000000,,2013-04-04 11:02:00,
2013-04-04 11:12:00,43.0,20.0,-100.00,ENE,61,5.0,9.0,39,0.00,,,0.00,0.000000,,2013-04-04 11:12:00,
2013-04-04 11:22:00,43.0,20.0,-100.00,ENE,61,5.0,9.0,39,0.00,,,0.00,0.000000,,2013-04-04 11:22:00,
2013-04-04 11:32:00,43.0,20.0,-100.00,ENE,61,5.0,9.0,39,0.00,,,0.00,0.000000,,2013-04-04 11:32:00,
2013-04-04 12:02:00,43.0,20.0,-100.00,ENE,60,4.0,12.0,39,0.00,,,0.00,0.000000,,2013-04-04 12:02:00,
2013-04-04 12:12:00,43.0,20.0,-100.00,ENE,60,4.0,12.0,39,0.00,,,0.00,0.000000,,2013-04-04 12:12:00,
2013-04-04 12:22:00,43.0,20.0,-100.00,ENE,60,4.0,12.0,39,0.00,,,0.00,0.000000,,2013-04-04 12:22:00,
2013-04-04 12:32:00,43.0,20.0,-100.00,ENE,60,4.0,12.0,39,0.00,,,0.00,0.000000,,2013-04-04 12:32:00,
2013-04-04 13:02:00,43.0,20.0,-100.00,ENE,58,4.0,9.0,40,0.00,,,0.00,8.000000,,2013-04-04 13:02:00,
2013-04-04 13:12:00,43.0,20.0,-100.00,ENE,58,4.0,9.0,40,0.00,,,0.00,8.000000,,2013-04-04 13:12:00,
2013-04-04 13:22:00,43.0,20.0,-100.00,ENE,58,4.0,9.0,40,0.00,,,0.00,8.000000,,2013-04-04 13:22:00,
2013-04-04 13:32:00,43.0,20.0,-100.00,ENE,58,4.0,9.0,40,0.00,,,0.00,8.000000,,2013-04-04 13:32:00,
2013-04-04 14:03:00,42.0,27.0,-100.00,ENE,57,3.0,8.0,56,0.00,,,0.00,48.000000,,2013-04-04 14:03:00,
2013-04-04 14:13:00,42.0,27.0,-100.00,ENE,57,3.0,8.0,56,0.00,,,0.00,48.000000,,2013-04-04 14:13:00,
2013-04-04 14:22:00,42.0,27.0,-100.00,ENE,57,3.0,8.0,56,0.00,,,0.00,48.000000,,2013-04-04 14:22:00,
2013-04-04 14:32:00,42.0,27.0,-100.00,ENE,57,3.0,8.0,56,0.00,,,0.00,48.000000,,2013-04-04 14:32:00,
2013-04-04 15:02:00,41.0,30.0,-100.00,ENE,77,3.0,8.0,64,0.00,,,0.00,74.000000,,2013-04-04 15:02:00,
2013-04-04 15:12:00,41.0,30.0,-100.00,ENE,77,3.0,8.0,64,0.00,,,0.00,74.000000,,2013-04-04 15:12:00,
2013-04-04 15:23:00,41.0,30.0,-100.00,ENE,77,3.0,8.0,64,0.00,,,0.00,74.000000,,2013-04-04 15:23:00,
2013-04-04 15:33:00,41.0,30.0,-100.00,ENE,77,3.0,8.0,64,0.00,,,0.00,74.000000,,2013-04-04 15:33:00,
2013-04-04 16:03:00,41.0,33.0,-100.00,East,92,3.0,7.0,72,0.02,,,0.02,119.000000,,2013-04-04 16:03:00,
2013-04-04 16:12:00,41.0,33.0,-100.00,East,92,3.0,7.0,72,0.02,,,0.02,119.000000,,2013-04-04 16:12:00,
2013-04-04 16:24:00,41.0,33.0,-100.00,East,92,3.0,7.0,72,0.02,,,0.02,119.000000,,2013-04-04 16:24:00,
2013-04-04 16:32:00,41.0,33.0,-100.00,East,92,3.0,7.0,72,0.02,,,0.02,119.000000,,2013-04-04 16:32:00,
2013-04-04 17:03:00,42.0,35.0,-100.00,East,101,4.0,9.0,75,0.00,,,0.02,203.000000,,2013-04-04 17:03:00,
2013-04-04 17:13:00,42.0,35.0,-100.00,East,101,4.0,9.0,75,0.00,,,0.02,203.000000,,2013-04-04 17:13:00,
2013-04-04 17:22:00,42.0,35.0,-100.00,East,101,4.0,9.0,75,0.00,,,0.02,203.000000,,2013-04-04 17:22:00,
2013-04-04 17:33:00,42.0,35.0,-100.00,East,101,4.0,9.0,75,0.00,,,0.02,203.000000,,2013-04-04 17:33:00,
2013-04-04 18:02:00,44.0,38.0,-100.00,East,87,4.0,6.0,79,0.01,,,0.03,215.000000,,2013-04-04 18:02:00,
2013-04-04 18:12:00,44.0,38.0,-100.00,East,87,4.0,6.0,79,0.01,,,0.03,215.000000,,2013-04-04 18:12:00,
2013-04-04 18:23:00,44.0,38.0,-100.00,East,87,4.0,6.0,79,0.01,,,0.03,215.000000,,2013-04-04 18:23:00,
2013-04-04 18:32:00,44.0,38.0,-100.00,East,87,4.0,6.0,79,0.01,,,0.03,215.000000,,2013-04-04 18:32:00,
2013-04-04 19:02:00,47.0,40.0,-100.00,NE,50,4.0,7.0,76,0.01,,,0.04,356.000000,,2013-04-04 19:02:00,
2013-04-04 19:12:00,47.0,40.0,-100.00,NE,50,4.0,7.0,76,0.01,,,0.04,356.000000,,2013-04-04 19:12:00,
2013-04-04 19:22:00,47.0,40.0,-100.00,NE,50,4.0,7.0,76,0.01,,,0.04,356.000000,,2013-04-04 19:22:00,
2013-04-04 19:32:00,47.0,40.0,-100.00,NE,50,4.0,7.0,76,0.01,,,0.04,356.000000,,2013-04-04 19:32:00,
2013-04-04 20:03:00,47.0,39.0,-100.00,ENE,78,3.0,7.0,75,0.00,,,0.04,242.000000,,2013-04-04 20:03:00,
2013-04-04 20:12:00,47.0,39.0,-100.00,ENE,78,3.0,7.0,75,0.00,,,0.04,242.000000,,2013-04-04 20:12:00,
2013-04-04 20:23:00,47.0,39.0,-100.00,ENE,78,3.0,7.0,75,0.00,,,0.04,242.000000,,2013-04-04 20:23:00,
2013-04-04 20:32:00,47.0,39.0,-100.00,ENE,78,3.0,7.0,75,0.00,,,0.04,242.000000,,2013-04-04 20:32:00,
2013-04-04 21:02:00,48.0,39.0,-100.00,NNE,14,3.0,6.0,72,0.00,,,0.04,211.000000,,2013-04-04 21:02:00,
2013-04-04 21:12:00,48.0,39.0,-100.00,NNE,14,3.0,6.0,72,0.00,,,0.04,211.000000,,2013-04-04 21:12:00,
2013-04-04 21:22:00,48.0,39.0,-100.00,NNE,14,3.0,6.0,72,0.00,,,0.04,211.000000,,2013-04-04 21:22:00,
2013-04-04 21:32:00,48.0,39.0,-100.00,NNE,14,3.0,6.0,72,0.00,,,0.04,211.000000,,2013-04-04 21:32:00,
2013-04-04 22:04:00,47.0,40.0,-100.00,NNE,18,3.0,7.0,76,0.00,,,0.04,180.000000,,2013-04-04 22:04:00,
2013-04-04 22:12:00,47.0,40.0,-100.00,NNE,18,3.0,7.0,76,0.00,,,0.04,180.000000,,2013-04-04 22:12:00,
2013-04-04 22:23:00,47.0,40.0,-100.00,NNE,18,3.0,7.0,76,0.00,,,0.04,180.000000,,2013-04-04 22:23:00,
2013-04-04 22:33:00,47.0,40.0,-100.00,NNE,18,3.0,7.0,76,0.00,,,0.04,180.000000,,2013-04-04 22:33:00,
2013-04-04 23:03:00,47.0,40.0,-100.00,NE,56,3.0,5.0,76,0.00,,,0.04,114.000000,,2013-04-04 23:03:00,
2013-04-04 23:12:00,47.0,40.0,-100.00,NE,56,3.0,5.0,76,0.00,,,0.04,114.000000,,2013-04-04 23:12:00,
2013-04-04 23:22:00,47.0,40.0,-100.00,NE,56,3.0,5.0,76,0.00,,,0.04,114.000000,,2013-04-04 23:22:00,
2013-04-04 23:32:00,47.0,40.0,-100.00,NE,56,3.0,5.0,76,0.00,,,0.04,114.000000,,2013-04-04 23:32:00,